Regional Weather Roundup
Issued by NWS

Home | Current Version | Previous Version | Graphics & Text | Print | Product List | Glossary On
Versions: 1 2 3 4 5 6 7 8 9 10 11 12 13 14 15 16 17 18 19 20 21 22 23 24 25 26 27 28 29 30 31 32 33 34 35 36 37 38 39 40 41 42 43 44 45 46 47 48 49 50
000
ASUS43 KMPX 292010
RWRMN
WEATHER ROUNDUP FOR MINNESOTA
NATIONAL WEATHER SERVICE TWIN CITIES/CHANHASSEN MN
200 PM CST THU JAN 29 2015


NOTE: "FAIR" INDICATES FEW OR NO CLOUDS BELOW 12,000 FEET WITH NO
SIGNIFICANT WEATHER AND/OR OBSTRUCTIONS TO VISIBILITY. N/A MEANS
CURRENT SKY AND/OR WEATHER CONDITIONS ARE NOT AVAILABLE.

MNZ060>063-068>070-292100-
   Twin Cities Metro

CITY           SKY/WX    TMP DP  RH WIND       PRES   REMARKS
TWIN CITIES    CLOUDY    28  17  63 NW26G32   30.27R WCI  13
ST PAUL        CLOUDY    30  18  60 NW21G31   30.27R WCI  17
CRYSTAL        CLOUDY    29  17  61 NW22G28   30.27R WCI  15
BLAINE         CLOUDY    30  19  64 NW17G28   30.26R WCI  18
LAKEVILLE      CLOUDY    28  19  69 NW22G28   30.25R WCI  15
EDEN PRAIRIE   CLOUDY    28  17  63 NW24G32   30.27R WCI  14
SOUTH ST PAUL  CLOUDY    30  18  61 NW20G30   30.26R WCI  17
LAKE ELMO      CLOUDY    30  21  69 NW16G25   30.25R WCI  19
$$
MNZ001>005-007-008-013>017-022>024-027-028-292100-
   Northwest Minnesota

CITY           SKY/WX    TMP DP  RH WIND       PRES   REMARKS
BEMIDJI        MOSUNNY   13   6  73 NW16      30.37R WCI  -4
HALLOCK        CLOUDY     7   1  78 N17G23    30.52R WCI -12
ROSEAU         MOSUNNY   10   3  72 NW14      30.43S WCI  -5
WARROAD        MOSUNNY    9   1  72 NW14G24   30.43R WCI  -8
THIEF RVR FALL MOSUNNY   10   3  72 NW15      30.45S WCI  -6
CROOKSTON      CLOUDY    10   5  79 N21       30.51S WCI  -9
FOSSTON        LGT SNOW  10   7  85 NW15      30.44R WCI  -6
DETROIT LAKES  FLURRIES  14  10  85 N22G31    30.42S WCI  -4
MOORHEAD       CLOUDY    18  10  73 N18       30.49F WCI   2
PARK RAPIDS    CLOUDY    17   8  67 NW23G29   30.35R WCI  -1
MAHNOMEN       CLOUDY    12   6  77 NW17      30.43S WCI  -5
$$
MNZ006-009>011-018-025>026-292100-
   North Central Minnesota

CITY           SKY/WX    TMP DP  RH WIND       PRES   REMARKS
BAUDETTE       PTSUNNY    8   0  69 N17G29    30.38R WCI -10
FLAG ISLAND    PTSUNNY    7   1  78 NW16      30.40S HAZE    WCI -11
INTL FALLS     CLOUDY    11   2  67 NW17G24   30.32R WCI  -6
WASKISH        MOSUNNY   12   5  73 NW7       30.38R WCI   2
BIG FORK       FLURRIES  10   3  72 NW12      30.32R WCI  -4
LONGVILLE      CLOUDY    12   7  79 NW12G20   30.33S WCI  -2
GRAND RAPIDS   CLOUDY    12   5  73 NW22      30.28R WCI  -7
CRANE LAKE     LGT SNOW  12   9  85 NW7       30.29R WCI   2
ORR            CLOUDY    10   3  72 NW15G22   30.25R WCI  -6
COOK           CLOUDY    10   5  79 NW13G22   30.27R WCI  -5
WALKER         MOCLDY    14   6  72 N9G20     30.35R WCI   2
$$
MNZ012-019>021-037-292100-
   Northeast Minnesota

CITY           SKY/WX    TMP DP  RH WIND       PRES   REMARKS
DULUTH         FLURRIES  19   9  65 NW14G26   30.19R WCI   6
ELY            CLOUDY    16   7  67 NW15G23   30.20R WCI   1
HIBBING        MIX PCPN  14   4  64 NW25      30.25R WCI  -5
EVELETH        LGT SNOW  16   9  73 NW12G23   30.25R WCI   3
DULUTH HARBOR  PTSUNNY   23  12  63 NW21G28   30.25R WCI   8
TWO HARBORS    FLURRIES  25  14  63 NW9G16    30.18R WCI  15
SILVER BAY     CLOUDY    25  10  54 NW8G18    30.15R WCI  16
GRAND MARAIS     N/A     21   8  57 N8G20     30.17R WCI  11
G MARAIS ARPRT LGT SNOW  14   5  67 NW13G20   30.08R WCI   0
$$
MNZ029>031-032-039>041-046>048-054>057-064-292100-
   West Central Minnesota

CITY           SKY/WX    TMP DP  RH WIND       PRES   REMARKS
FERGUS FALLS   FLURRIES  16   7  67 N21G26    30.48R WCI  -2
WHEATON        FLURRIES  18  12  79 NW20G26   30.49R WCI   1
MORRIS         LGT SNOW  19  12  73 NW23G30   30.42R WCI   2
ALEXANDRIA     PTSUNNY   19  10  68 N18G26    30.37R WCI   4
ELBOW LAKE     LGT SNOW  16  10  77 N18       30.43R WCI  -1
WADENA         PTSUNNY   16   9  73 NW18      30.37R WCI  -1
GLENWOOD       MOSUNNY   21  12  68 NW22G30   30.37R WCI   5
APPLETON       CLOUDY    25  16  68 N25G32    30.44R WCI   9
BENSON         FLURRIES  21  12  68 N20G31    30.41S WCI   6
ORTONVILLE     CLOUDY    21  18  86 N17G26    30.44R WCI   7
MADISON        CLOUDY    28  21  74 N17G30    30.43R WCI  16
WILLMAR        PTSUNNY   25  16  68 NW28      30.38S WCI   8
$$
MNZ033>034-036-042>043-049>051-058-059-292100-
   Central Minnesota

CITY           SKY/WX    TMP DP  RH WIND       PRES   REMARKS
ST CLOUD       CLOUDY    25  15  66 NW17G29   30.31R WCI  12
SAUK CENTRE    FAIR      21  11  65 NW22      30.35R WCI   5
PAYNESVILLE    PTSUNNY   22  14  73 W18G28    30.35R WCI   7
AITKIN         MIX PCPN  23  10  58 NW13G18   30.28R WCI  11
PINE RIVER     CLOUDY    18   9  68 NW17G24   30.35R WCI   2
BRAINERD       MIX PCPN  20  10  65 NW23      30.32R WCI   3
STAPLES        PTSUNNY   18  10  73 NW20      30.34R WCI   1
LONG PRAIRIE   CLOUDY    21  12  68 W20G25    30.34S WCI   6
LITTLE FALLS   PTSUNNY   23  12  63 NW12G21   30.33R WCI  12
LITCHFIELD     PTSUNNY   27  18  69 NW18G29   30.34R WCI  13
BUFFALO        CLOUDY    26  16  68 NW16G23   30.32R WCI  13
MAPLE LAKE     CLOUDY    26  19  73 NW17G25   30.32R WCI  13
$$
MNZ037-044-045-052-053-292100-
   East Central Minnesota

CITY           SKY/WX    TMP DP  RH WIND       PRES   REMARKS
PRINCETON      CLOUDY    28  16  59 NW15G23   30.29R WCI  17
MORA           PTSUNNY   25  14  63 NW23G30   30.28R WCI  10
CAMBRIDGE      PTSUNNY   30  16  55 NW17G24   30.25S WCI  18
RUSH CITY      PTSUNNY   27  17  64 NW14G24   30.26R WCI  16
MOOSE LAKE     FLURRIES  23  12  63 N16G24    30.24R WCI  10
HINCKLEY       CLOUDY    27  18  69 NW16G23   30.25R WCI  14
CLOQUET        CLOUDY    19  10  68 NW14G20   30.21R WCI   6
MCGREGOR       CLOUDY    19  12  73 NW20G26   30.28R WCI   4
$$
MNZ071>073-080-081-089-090-097-098-292100-
   Southwest Minnesota

CITY           SKY/WX    TMP DP  RH WIND       PRES   REMARKS
MONTEVIDEO     CLOUDY    23  18  80 N24G36    30.42S WCI   7
GRANITE FALLS  CLOUDY    24  18  75 NW25      30.42S WCI   8
CANBY          CLOUDY    27  21  79 N18G24    30.43S WCI  13
MARSHALL       CLOUDY    27  18  69 N22G31    30.41R WCI  12
REDWOOD FALLS  CLOUDY    25  16  68 NW24G39   30.38R WCI   9
OLIVIA         CLOUDY    23  18  80 NW23G35   30.37R WCI   7
PIPESTONE      CLOUDY    28  21  74 N14G25    30.37S WCI  17
WINDOM         CLOUDY    27  19  74 NW28G35   30.36R WCI  11
WORTHINGTON    CLOUDY    27  19  74 NW21G26   30.37S WCI  13
JACKSON        CLOUDY    28  21  74 NW24G36   30.35R WCI  14
TRACY          CLOUDY    27  22  82 NW23G30   30.39R WCI  12
SLAYTON        CLOUDY    26  21  82 NW20G25   30.37S WCI  13
$$
MNZ065>067-074>077-082>085-091>093-292100-
   South Central Minnesota

CITY           SKY/WX    TMP DP  RH WIND       PRES   REMARKS
MANKATO        CLOUDY   N/A N/A N/A NW22G36   30.29R
NEW ULM        CLOUDY    25  18  74 NW30G37   30.34R WCI   8
ST JAMES       CLOUDY    28  19  69 NW28G33   30.36R WCI  13
FAIRMONT       CLOUDY    28  18  64 NW30G38   30.32R WCI  13
GLENCOE        CLOUDY    26  20  76 NW21G35   30.32R WCI  12
FARIBAULT      CLOUDY    28  21  74 NW22G30   30.26R WCI  15
OWATONNA       PTSUNNY   30  21  69 NW28      30.25R WCI  16
WASECA         CLOUDY    30  23  74 NW29      30.28R WCI  15
ALBERT LEA     CLOUDY    30  23  74 NW15G26   30.24S WCI  19
$$
MNZ078>079-086>088-094>096-292100-
   Southeast Minnesota

CITY           SKY/WX    TMP DP  RH WIND       PRES   REMARKS
ROCHESTER      CLOUDY    30  23  75 NW24G32   30.18S WCI  16
RED WING       CLOUDY    32  21  64 NW12G22   30.21R WCI  23
STANTON        CLOUDY    32  23  69 NW24G31   30.23R WCI  19
DODGE CENTER   CLOUDY    28  25  86 NW23G33   30.21R WCI  14
WINONA         CLOUDY    36  27  69 N18G24    30.16S
AUSTIN         MOSUNNY   30  23  74 NW23G37   30.21R WCI  17
PRESTON        CLOUDY    31  23  74 NW20G25   30.17R WCI  18
$$
ABBREVIATIONS USED IN REMARKS
   TC - TEMPERATURES IN CELSIUS
  WCI - WIND CHILL INDEX
   HX - HEAT INDEX
  VSB - VISIBILITY
$$


USA.gov is the U.S. government's official web portal to all federal, state and local government web resources and services.